Mobile Downtown Airport
KBFM : rendu visible

Aérodrome :











RETROUVEZ-NOUS SUR...

 
LOGIN :

S'inscrire | Disclaimer

   EN    FR    IT 

 









Légende :    VFR   VFR Marginal   IFR   IFR Intensif   IFR Très Intensif
Visi : 
Plafond : 
>= 8 km
>= 3000ft
5 à 8 km
1000 à 3000 ft
1500m à 5 km
500 à 1000 ft
800 à 1500m
200 à 500 ft
< 800m
< 200 ft
Symboles :   Orages  Brouillard  Fortes neiges  Fortes précipitations  Vent > 20 kt






- Altitude de l'aérodrome : 26 ft


KBFM - Mobile Downtown

DERNIER METAR :
  • 311553Z 03008KT 10SM CLR 31/17 A3011 RMK AO2 SLP196 T03060167

METARs EXPIRÉS :
  • 311453Z 01005KT 10SM CLR 29/18 A3011 RMK AO2 SLP195 T02890178 50006
  • 311353Z 02007KT 10SM CLR 27/17 A3011 RMK AO2 SLP196 T02720172

TAF KBFM
Valide du 31 à 12h jusqu'au 01 à 12h UTC


311120Z 3112/0112 01008KT P6SM FEW050 SCT250
FM311800 01008KT P6SM FEW050 SCT250
FM010300 02006KT P6SM FEW150 SCT250
FIR KZHU / Amérique du Nord



MET'MAP, la Météo Aéronautique d'un coup d'oeil ! - Copyright ORBIFLY Décembre 2007 - Disclaimer

ORBIFLY MET'MAP TEAM :

Programmation & Développement : Alexandra Zaïnal
Sur une idée originale de : Baudouin d'Aumeries
Assistance à la programmation : Marc-Olivier Méhu
Soutien technique & logistique : Manuel Goepfert

Contact : metmap@orbifly.com




SOURCES & CREDITS :

   NOAA       Earth
Advisory